AQUA (27424 NORAD) Tracking and Keplerian Element Data

This shows tracking and keplerian element data for the satellite.

Feedback or suggestion? Click here.




ElementValue
Catalog27424
NameAQUA
Epoch Orbit15396
Epoch Day13.15191271
Epoch Year2024
RAAN322.1821
Inclination98.313
Eccentricity6.34E-05
Argument of Perigee99.8957
Mean Anonmoly317.6484
Mean Motion14.58746447
Decay Rate1.712E-05
L11 27424U 02022A 24013.15191271 .00001712 00000+0 37666-3 0 9993
L22 27424 98.3130 322.1821 0000634 99.8957 317.6484 14.58746447153961



Live tracking and technical data element details for AQUA (NORAD 27424). AQUA can be tracked NOW for your location showing map with azimuth and elevation plus other details from your city location.







IsCatalogInMostPopularTable: catalog: 27424, numindb: 772
Update: records affected: 1



GetName: 27424 AQUA

Hit Count: updated at: Fri, 19 Apr 2024 13:05:38 GMT